DateTimeUTC,F1_A11,F1_S11,BsB_S11,BsG_S11,BsR_S11,BbsB_S11,BbsG_S11,BbsR_S11,BaB_A11,BaG_A11,BaR_A11,Tu_S11,T_S11,Uu_S11,U_S11,P_S11,T1_A11
2021-12-23T05:00:00Z,00000200,21000000,,,,,,,-000.06,-000.02,-000.06,20.1,27.0,,00.0,0665.5,31.2
2021-12-23T05:01:00Z,00000200,21000000,,,,,,,-000.20,0000.10,-000.03,20.1,27.1,,00.0,0665.5,31.2
2021-12-23T05:02:00Z,00000200,21000000,,,,,,,-000.20,-000.26,0000.08,20.1,27.1,,00.0,0665.5,31.2
2021-12-23T05:03:00Z,00000200,61000000,,,,,,,0000.09,0000.10,-000.27,20.1,27.1,,00.0,0665.5,31.2
2021-12-23T05:04:00Z,00000200,41000000,0000.21,0000.23,0000.22,-000.25,-000.08,-000.10,0000.46,-000.03,0000.70,20.4,27.0,,00.0,0666.5,31.2
2021-12-23T05:05:00Z,00000200,01000000,0000.48,0000.07,0000.14,0000.03,0000.07,-000.04,-000.20,0000.22,-000.31,20.5,27.0,,00.0,0666.5,31.2
2021-12-23T05:06:00Z,00000200,01000000,0000.01,-000.09,-000.05,-000.36,-000.05,-000.06,0000.23,-000.06,0000.26,20.5,27.0,,00.0,0666.5,31.2
2021-12-23T05:07:00Z,00000200,01000000,-000.30,-000.03,0000.22,0000.24,0000.08,0000.07,0000.35,0000.42,-000.07,20.5,27.0,,00.0,0666.5,31.2
2021-12-23T05:08:00Z,00000200,01000000,-000.45,0000.13,0000.12,-000.11,0000.21,0000.17,0000.16,0000.32,0000.34,20.5,27.0,,00.0,0666.5,31.2
2021-12-23T05:09:00Z,00000200,01000000,0000.67,0000.33,0000.40,0000.36,0000.09,0000.18,0000.69,0000.45,0000.18,20.5,27.0,,00.0,0666.5,31.2
2021-12-23T05:10:00Z,00000200,01000000,0000.50,0000.31,0000.22,-000.32,-000.26,0000.09,0000.25,0000.24,0000.39,20.4,26.9,,00.0,0666.5,31.1
2021-12-23T05:11:00Z,00000200,01000000,0000.19,-000.01,0000.15,-000.08,0000.07,0000.24,0000.29,0000.17,-000.11,20.3,26.9,,00.0,0666.5,31.1
2021-12-23T05:12:00Z,00000200,01000000,0000.21,0000.13,0000.19,-000.10,-000.14,-000.07,-000.12,0000.18,0000.65,20.2,26.8,,00.0,0666.5,31.1
2021-12-23T05:13:00Z,00000200,01000000,-000.07,0000.07,0000.02,0000.37,0000.50,0000.02,-000.00,0000.12,-000.60,20.2,26.8,,00.0,0666.4,31.2
2021-12-23T05:14:00Z,00000200,01000000,0000.33,0000.46,-000.10,0000.20,0000.05,0000.10,0000.11,0000.23,0000.77,20.2,26.8,,00.0,0666.4,31.2
2021-12-23T05:15:00Z,00000200,01000000,-000.11,0000.28,0000.34,0000.37,-000.06,0000.03,0000.44,0000.08,-000.15,20.3,26.8,,00.0,0666.4,31.2
2021-12-23T05:16:00Z,00000200,01000000,-000.03,0000.22,0000.10,0000.40,0000.06,-000.03,0000.23,0000.56,0000.17,20.3,26.8,,00.0,0666.4,31.2
2021-12-23T05:17:00Z,00000200,01000000,0000.32,0000.09,-000.01,0000.22,0000.13,0000.14,0000.44,-000.11,0000.15,20.3,26.8,,00.0,0666.4,31.2
2021-12-23T05:18:00Z,00000200,01000000,-000.21,0000.05,-000.21,-000.14,0000.12,-000.08,0000.07,0000.27,0000.11,20.4,26.8,,00.0,0666.4,31.2
2021-12-23T05:19:00Z,00000200,01000000,-000.01,0000.10,-000.02,-000.05,0000.12,0000.49,0000.02,0000.18,0000.35,20.4,26.9,,00.0,0666.4,31.2
2021-12-23T05:20:00Z,00000200,01000000,0000.13,-000.03,0000.24,0000.09,0000.07,-000.07,0000.26,0000.32,0000.03,20.4,26.9,,00.0,0666.5,31.2
2021-12-23T05:21:00Z,00000200,01000000,0000.36,0000.35,0000.39,0000.57,0000.14,0000.35,0000.13,0000.03,-000.29,20.5,26.9,,00.0,0666.5,31.2
2021-12-23T05:22:00Z,00000200,01000000,-000.37,-000.04,-000.14,0000.20,-000.02,0000.05,0000.22,-000.15,0000.13,20.5,26.9,,00.0,0666.5,31.2
2021-12-23T05:23:00Z,00000200,01000000,0000.09,-000.15,-000.06,0000.58,0000.13,-000.04,-000.04,-000.27,0000.01,20.5,26.9,,00.0,0666.5,31.2
2021-12-23T05:24:00Z,00000200,01000000,0000.79,0000.46,-000.27,0000.41,-000.19,-000.05,0000.36,0000.58,0000.34,20.4,26.9,,00.0,0666.5,31.2
2021-12-23T05:25:00Z,00000200,01000000,0000.14,0000.42,-000.38,0000.13,0000.41,-000.34,-000.20,-000.17,0000.20,20.3,26.8,,00.0,0666.5,31.2
2021-12-23T05:26:00Z,00000200,01000000,-000.07,-000.00,0000.00,0000.40,0000.19,0000.32,0000.10,0000.50,0000.04,20.2,26.8,,00.0,0666.5,31.1
2021-12-23T05:27:00Z,00000200,01000000,0000.08,0000.01,0000.31,-000.46,0000.18,0000.41,0000.39,-000.22,0000.03,20.2,26.8,,00.0,0666.5,31.2
2021-12-23T05:28:00Z,00000200,01000000,0000.03,-000.21,0000.04,-000.17,0000.26,0000.32,0000.30,0000.54,0000.23,20.2,26.7,,00.0,0666.5,31.1
2021-12-23T05:29:00Z,00000200,01000000,0000.50,0000.08,0000.09,0000.19,-000.24,0000.03,0000.04,0000.11,0000.20,20.2,26.7,,00.0,0666.5,31.1
2021-12-23T05:30:00Z,00000200,01000000,0001.17,0000.33,0000.10,0000.01,0000.15,-000.30,0000.44,0000.21,0000.24,20.3,26.7,,00.0,0666.5,31.1
2021-12-23T05:31:00Z,00000200,01000000,0000.67,0000.36,-000.03,0000.18,0000.04,0000.54,0000.32,-000.03,-000.36,20.3,26.8,,00.0,0666.5,31.2
2021-12-23T05:32:00Z,00000200,01000000,-000.12,-000.21,0000.10,-000.19,0000.36,0000.15,0000.11,0000.12,0000.53,20.3,26.8,,00.0,0666.5,31.2
2021-12-23T05:33:00Z,00000200,01000000,0000.24,0000.34,0000.11,0000.22,0000.01,-000.40,-000.07,0000.43,0000.14,20.4,26.8,,00.0,0666.5,31.2
2021-12-23T05:34:00Z,00000200,01000000,0000.73,0000.08,0000.29,-000.25,0000.02,0000.08,0000.15,0000.00,-000.10,20.4,26.8,,00.0,0666.5,31.2
2021-12-23T05:35:00Z,00000200,01000000,0000.71,0000.57,0000.26,-000.23,0000.02,0000.10,0000.11,0000.20,0000.23,20.4,26.8,,00.0,0666.5,31.2
2021-12-23T05:36:00Z,00000200,01000000,0000.12,0000.06,0000.06,0000.00,-000.04,-000.28,0000.31,0000.59,-000.02,20.4,26.8,,00.0,0666.5,31.2
2021-12-23T05:37:00Z,00000200,01000000,0000.07,0000.24,-000.09,0000.20,-000.07,-000.10,0000.24,-000.08,0000.65,20.3,26.8,,00.0,0666.5,31.2
2021-12-23T05:38:00Z,00000200,01000000,-000.59,-000.04,0000.24,-000.07,0000.05,0000.09,0000.18,0000.16,-000.26,20.2,26.8,,00.0,0666.5,31.1
2021-12-23T05:39:00Z,00000200,01000000,-000.50,0000.28,0000.17,0000.27,0000.04,-000.12,0000.06,-000.09,0000.14,20.2,26.7,,00.0,0666.5,31.1
2021-12-23T05:40:00Z,00000200,01000000,0000.62,0000.05,0000.17,0000.65,-000.33,0000.46,0000.10,0000.38,0000.05,20.1,26.7,,00.0,0666.4,31.1
2021-12-23T05:41:00Z,00000200,01000000,0000.57,-000.05,0000.76,0000.85,-000.22,0000.38,-000.34,-000.57,-000.33,20.0,26.6,,00.0,0666.4,31.1
2021-12-23T05:42:00Z,00000200,01000000,0000.90,0000.25,0000.05,0000.06,-000.03,0000.09,0000.33,0000.25,0000.09,20.0,26.6,,00.0,0666.4,31.1
2021-12-23T05:43:00Z,00000200,01000000,0000.48,-000.13,0000.20,0000.21,0000.07,0000.71,-000.27,-000.26,0000.43,20.0,26.6,,00.0,0666.5,31.1
2021-12-23T05:44:00Z,00000200,01010000,-000.14,0000.31,-000.20,0000.13,0000.20,0000.01,-000.10,-000.01,-000.26,20.0,26.6,,00.0,0666.5,31.1
2021-12-23T05:45:00Z,00000200,01000000,-000.08,0000.24,0000.22,0000.06,-000.12,0000.40,0000.34,-000.04,-000.12,20.0,26.6,,00.0,0666.5,31.1
2021-12-23T05:46:00Z,00000200,01000000,0001.02,0000.06,0000.30,-000.30,0000.20,0000.01,0000.11,0000.55,0000.01,20.1,26.6,,00.0,0666.5,31.1
2021-12-23T05:47:00Z,00000200,01000000,0000.14,0000.23,0000.04,-000.13,-000.00,0000.19,-000.18,-000.25,0000.11,20.1,26.6,,00.0,0666.5,31.1
2021-12-23T05:48:00Z,00000200,01000000,0000.54,-000.07,0000.18,0000.17,-000.30,0000.21,0000.31,0000.31,0000.30,20.2,26.6,,00.0,0666.5,31.1
2021-12-23T05:49:00Z,00000200,01000000,0000.10,0000.05,0000.37,-000.66,-000.04,0000.15,-000.10,0000.09,0000.32,20.2,26.6,,00.0,0666.5,31.1
2021-12-23T05:50:00Z,00000200,01000000,0000.79,-000.40,0000.27,-000.40,0000.12,0000.52,0000.11,-000.11,-000.37,20.2,26.7,,00.0,0666.6,31.2
2021-12-23T05:51:00Z,00000200,01000000,-000.11,0000.05,-000.10,0000.21,0000.13,0000.18,0000.15,0000.02,-000.04,20.2,26.7,,00.0,0666.6,31.2
2021-12-23T05:52:00Z,00000200,01000000,0000.22,0000.03,-000.10,0000.11,0000.11,0000.36,-000.26,0000.19,0000.13,20.2,26.7,,00.0,0666.6,31.1
2021-12-23T05:53:00Z,00000200,01000000,0000.15,-000.19,0000.23,0000.29,0000.32,0000.24,0000.33,-000.54,-000.10,20.1,26.6,,00.0,0666.6,31.1
2021-12-23T05:54:00Z,00000200,01000000,0000.17,0000.01,-000.09,0000.16,0000.02,-000.03,0000.10,0000.78,0000.30,20.0,26.6,,00.0,0666.6,31.1
2021-12-23T05:55:00Z,00000200,01000000,0000.29,0000.01,-000.01,-000.15,-000.09,-000.09,-000.29,-000.68,-000.21,19.9,26.6,,00.0,0666.6,31.1
2021-12-23T05:56:00Z,00000200,01000000,-000.25,0000.30,-000.24,0000.49,0000.25,0000.12,-000.26,-000.36,-000.41,19.8,26.5,,00.0,0666.5,31.1
2021-12-23T05:57:00Z,00000200,41000000,,,,,,,0000.82,0000.65,0000.88,19.8,26.5,,00.0,0666.5,31.1
2021-12-23T05:58:00Z,00000200,61000000,,,,,,,-000.44,0000.30,-000.22,19.5,26.6,,00.0,0665.5,31.1
2021-12-23T05:59:00Z,00000200,21000000,,,,,,,0000.14,-000.23,0000.12,19.5,26.7,,00.0,0665.5,31.1
